Location: Capelle
(50.3413°N, 1.9974°E)
Time: 22:28:10
(UTC+00:00)

Cosmos 676 Rocket - Pass Details

Date: 12 January 2026
Orbit: 750 x 779 km, 74.0° (Epoch: 7 February)

Event Time Altitude Azimuth Distance (km) Brightness Sun altitude
Rises 17:12:27 0° 337° (NNW) 3,215 7.2 -9.2°
Reaches altitude 10° 17:14:51 10° 340° (NNW) 2,288 6.4 -9.5°
Maximum altitude 17:20:00 65° 63° (ENE) 835 3.9 -10.3°
Drops below altitude 10° 17:25:10 10° 145° (SE) 2,288 6.3 -11.1°
Sets 17:27:33 0° 149° (SSE) 3,214 7.1 -11.4°
